Regional Weather Roundup
Issued by NWS

Home | Current Version | Previous Version | Graphics & Text | Print | Product List | Glossary On
Versions: 1 2 3 4 5 6 7 8 9 10 11 12 13 14 15 16 17 18 19 20 21 22 23 24 25 26 27 28 29 30 31 32 33 34 35 36 37 38 39 40 41 42 43 44 45 46 47 48 49 50
000
ASUS43 KLOT 051708
RWRIL

ILLINOIS REGIONAL WEATHER ROUNDUP
NATIONAL WEATHER SERVICE CHICAGO/ROMEOVILLE IL
1200 PM CDT SUN JUL 05 2015

NOTE: "FAIR" INDICATES FEW OR NO CLOUDS BELOW 12,000 FEET WITH NO
SIGNIFICANT WEATHER AND/OR OBSTRUCTIONS TO VISIBILITY.

* THESE STATIONS ARE NOT UNDER NWS QUALITY CONTROL. THEY ALSO MAY NOT
  REPORT WEATHER SUCH AS PRECIPITATION OR FOG.

ILZ001-002-007-009-015-016-024-051800-
NORTHWEST ILLINOIS

CITY           SKY/WX    TMP DP  RH WIND       PRES   REMARKS
MOLINE         PTSUNNY   80  66  62 S7        30.04F HX  82
STERLING*      MOSUNNY   82  66  57 S8        30.07S HX  85
SAVANNA*       SUNNY     80  63  56 SW7       30.06R HX  81
$$

ILZ003-004-008-010-011-017-018-051800-
NORTH CENTRAL ILLINOIS

CITY           SKY/WX    TMP DP  RH WIND       PRES   REMARKS
ROCKFORD       MOSUNNY   80  64  58 S6        30.09S HX  82
FREEPORT*      PTSUNNY   77  65  67 S7        30.09S
ROCHELLE*      MOSUNNY   78  64  63 S9        30.09S
DE KALB*       MOSUNNY   76  63  63 S7        30.10R
PERU*          MOSUNNY   79  60  52 SE7       30.09R HX  80
$$

ILZ005-006-012>014-019>023-051800-
NORTHEAST ILLINOIS

CITY           SKY/WX    TMP DP  RH WIND       PRES   REMARKS
CHICAGO-OHARE  MOSUNNY   80  60  50 S10       30.08S HX  81
CHICAGO-MIDWAY MOSUNNY   81  60  48 CALM      30.08F HX  82
AURORA         SUNNY     80  62  54 S10G17    30.09S HX  81
LANSING*       SUNNY     78  57  47 S9        30.09F
JOLIET*        MOSUNNY   80  63  57 S6        30.09S HX  81
WAUKEGAN       PTSUNNY   78  61  55 SE6       30.07F HX  80
DUPAGE AIRPORT MOSUNNY   79  61  53 S8        30.08S HX  80
KANKAKEE*      MOSUNNY   81  64  55 CALM      30.10S HX  82
WHEELING       MOSUNNY   79  59  50 VRB5      30.09S HX  80
MORRIS*        MOSUNNY   79  61  54 S8        30.07F HX  80
ROMEOVILLE*    PTSUNNY   79  60  51 CALM      30.09S HX  80
NORTHERLY ISL    N/A     73  63  70 E9          N/A
$$

LMZ740>746-051800-
SOUTHERN LAKE MICHIGAN

STATION/POSITION SKY/WX   TEMP    WIND        PRES    VSBY  WAVE
                          AIR SEA DIR/SP/G                  HT/PER
                          (F)     (DEG/KT/KT) (MB)    (MI)  (FT/S)
HARRISON CRIB              70     110/ 11/ 11   N/A
BURNHAM HARBOR             73     120/  8/  9   N/A
CALUMET HARBOR             74      80/  6/  7   N/A
BURNS HARBOR               72     360/  6/  6 1019.6S
MICHIGAN CITY              69      30/  3/  4   N/A
MICHIGAN CITY 6N           71 68  360/  4/  4   N/A           0
ST. JOSEPH                 69 64                N/A           0
$$

ILZ025>027-034>036-040-047-049-050-058-095>099-051800-
WEST-CENTRAL ILLINOIS

CITY           SKY/WX    TMP DP  RH WIND       PRES   REMARKS
QUINCY         MOSUNNY   82  71  69 S6        30.05F HX  86
GALESBURG*     MOSUNNY   79  65  63 S8        30.07S HX  81
MACOMB*        SUNNY     79  67  65 S7        30.08F HX  81
JACKSONVILLE*  MOSUNNY   82  67  62 CALM      30.08S HX  84
PITTSFIELD*    PTSUNNY   80  70  70 SE3       30.07F HX  83
$$

ILZ028>032-037-038-041>044-048-051>054-059>061-051800-
CENTRAL ILLINOIS

CITY           SKY/WX    TMP DP  RH WIND       PRES   REMARKS
PONTIAC        SUNNY     79  65  62 SE5       30.10S HX  81
BLOOMINGTON    MOSUNNY   78  65  64 S8        30.11S HX  80
DECATUR        MOSUNNY   79  63  57 VRB3      30.09S HX  80
PEORIA         PTSUNNY   80  64  58 S7        30.08S HX  82
LACON*         MOSUNNY   78  63  60 S5        30.07S HX  80
LINCOLN*       MOSUNNY   81  63  54 S3        30.08S HX  82
SPRINGFIELD    SUNNY     81  65  58 CALM      30.08S HX  83
TAYLORVILLE    PTSUNNY   77  64  65 CALM      30.09R
$$

ILZ033-039-045-046-055>057-062-063-051800-
EAST-CENTRAL ILLINOIS

CITY           SKY/WX    TMP DP  RH WIND       PRES   REMARKS
CHAMPAIGN      PTSUNNY   79  63  57 S3        30.10S HX  80
DANVILLE*      MOSUNNY   78  63  60 CALM      30.08R HAZE    HX  80
MATTOON        MOSUNNY   79  67  66 CALM      30.09R HX  81
PARIS*         MOSUNNY   80  67  63 SE3       30.11R HX  82
$$

ILZ079-100>102-051800-
SOUTHWEST ILLINOIS

CITY           SKY/WX    TMP DP  RH WIND       PRES   REMARKS
BELLEVILLE     MOSUNNY   81  68  65 S6        30.06R HX  83
CAHOKIA*       MOSUNNY   83  67  58 VRB5      30.07R HX  85
SPARTA*        PTSUNNY   81  66  61 CALM      30.08S HX  83
$$

ILZ064>066-069>071-074>076-080>082-084>086-088>090-092>094-051800-
SOUTH-CENTRAL ILLINOIS

CITY           SKY/WX    TMP DP  RH WIND       PRES   REMARKS
CARBONDALE     SUNNY     80  65  59 SE3       30.08S HX  82
CAIRO*         MOSUNNY   78  72  81 SW6       30.08S HAZE    HX  81
EFFINGHAM*     MOSUNNY   81  61  51 CALM      30.10S HX  81
MARION         MOSUNNY   81  66  61 E5        30.08F HX  83
MT. VERNON     MOSUNNY   81  64  57 CALM      30.09S HX  82
CENTRALIA*     MOSUNNY   81  62  52 E3        30.08S HX  82
SALEM*         MOSUNNY   81  63  53 CALM      30.09S HX  82
$$

ILZ067-068-072-073-078-083-087-091-051800-
SOUTHEAST ILLINOIS

CITY           SKY/WX    TMP DP  RH WIND       PRES   REMARKS
LAWRENCEVILLE  MOSUNNY   82  67  60 E8        30.08S HX  84
FLORA*         MOSUNNY   80  64  59 CALM      30.09S HX  82
FAIRFIELD*     MOSUNNY   81  68  64 CALM      30.07S HX  83
HARRISBURG*    MOSUNNY   80  68  67 CALM      30.09S HX  82
ROBINSON*      MOSUNNY   80  67  64 CALM      30.09F HX  83
CARMI*         MOSUNNY   82  64  53 NE3       30.07S HX  84
$$

ABBREVIATIONS USED IN REMARKS
   TC - TEMPERATURE IN CELSIUS
  WCI - WIND CHILL INDEX
   HX - HEAT INDEX
  VSB - VISIBILITY
$$




USA.gov is the U.S. government's official web portal to all federal, state and local government web resources and services.